Showing default

SYMPHONIE 1, 7578

Orbit data source: Space-Track

SYMPHONIE 1, 7578 is an FR and DE payload satellite in GEO that was launched on Thu, 19 Dec 1974 UTC via a DELTA 2914 launch vehicle from the Air Force Eastern Test Range (AFETR). Payload-class satellites include a variety of spacecraft equipped with specific instruments for various scientific and technological missions. These include communications satellites like Starlink; space stations such as the ISS; scientific satellites like the Hubble; Earth observation satellites from companies like Planet Labs, Umbra, and HawkEye 360; GPS; miniature CubeSats for education and research; and military/defense satellites.

Loading next visibility...
Identifier
7578, 1974-101A
Orbit
GEO
Country
Flag of UnknownUnknown / FGER
Related business
Manufacturer
AELM/CIFAS
Mission
Spacecraft
Bus & Motor
SYMPHONIE, S400
Mass
400 kg wet, 240 kg dry
Launch date (UTC)
1974-12-19 (51 years ago)
Launch vehicle
DELTA 2914
Launch site
Air Force Eastern Test Range (AFETR)
Object type
Payload
Rocket body
Debris
Shape & HBR
Unknown
Radar Cross Section
Large (>1 m²)

Expand to show TLE details & history
Last TLE update: 8 hours ago

TLE from 8 hours ago
0 SYMPHONIE 1
1 07578U 74101A   25289.59567291  .00000089  00000-0  00000-0 0  9997
2 07578   5.2042 280.0853 0003891 319.7189 200.9275  0.99956764114766
Epoch: 2025-10-16T14:17Z
TLE epoch observation values (Epoch: 2025-10-16T14:17:46.139Z)
Latitude
1.70626°
Longitude
-159.01535°
Altitude
35,889.769 km
Speed
3.07 km/s
True Right ascension
05h 23m 07s
True Declination
1° 42' 16"
Sunlit
Object was in daylight at epoch
Visualization orbit readout
Latitude
Unknown
Longitude
Unknown
Altitude
Unknown
Speed
Unknown
Apparent Right ascension
Unknown
Apparent Declination
Unknown
Sunlit
N/A
Visualization observer readout
Local Sidereal Time
17:01:13
Azimuth
Unknown
Elevation
Unknown
Doppler factor
Unknown
Orbital elements
Apogee altitude
35,892.635 km
Perigee altitude
35,859.753 km
Semi-major axis
42,254.331 km
Eccentricity
0.00039
Inclination
5.2042°
RAAN
280.0853°
Arg. of periapsis
319.7189°
True anomaly
200.91158°
Mean anomaly
200.9275°
Eccentric anomaly
200.91954°
Mean motion
0.24988 °/min
Orbital period
1,440.68 mins
BSTAR
0
Loading maneuver chart data...
Computing Atmospheric mass density...
Loading historical data...
Loading historical data...
Loading historical data...
Loading historical data...
Loading historical data...
Loading historical data...
Loading historical data...

Documentation

Showing up to 5 results
|